Torna al catalogo

FENGYUN 1C DEB

AttivoSSO
NORAD 31655·DEBRIS·🇨🇳 China

Lanciato May 10, 1999 da Taiyuan Satellite Launch Center

Loading…

Prossimi Passaggi (prossime 24 ore)

TLE

In scadenzaSource: Space-Track

Epoca: Sep 9, 2026, 01:09 UTC

1 31655U 99025CBM 26252.04818668  .00002225  00000-0  21012-2 0  9992
2 31655  99.2752 191.5118 0283526 158.5609 264.4393 13.65711250634074

Traccia FENGYUN 1C DEB in tempo reale con AllMySat

Download on the App Store